Location: Bannatyne
(13.0833°N, 59.5333°W)
Time: 13:33:32
(UTC+00:00)

Vanguard 2 Rocket - Pass Details

Date: 23 January 2020
Orbit: 554 x 3326 km, 32.9° (Epoch: 04 April)

Event Time Altitude Azimuth Distance (km) Brightness Sun altitude
Rises 15:57:22 0° 300° (WNW) 4,973 10.5 57.3°
Reaches altitude 10° 16:00:05 10° 299° (WNW) 4,279 10.3 57.4°
Maximum altitude 16:12:53 80° 214° (SW) 2,733 10.8 57.4°
Drops below altitude 10° 16:32:49 10° 129° (SE) 6,271 11.5 57.0°
Sets 16:37:48 0° 128° (SE) 7,302 11.7 56.7°
